Meteopurmerend
purmerend
Purmerend - Baaienwijk



My webcam  My webcam


waarschuwing voor Onweer Meer informatie blitzortung!


Regen radar Meer informatie rain snow radar


Bezoek onze andere website:

CandyAppleRed WebdesignWebdesign Purmerend Candy Apple Red

MeteopurmerendBlog

Template documentation
and downloads



Onweer van: 26-07-2021 13:00 tot: 21:00 waarschuwing voor: Onweer niveau: Geel info button
Enkele onweersbuien, lokaal met hagel en veel neerslag in korte tijd.Kans op blikseminslag, hagel en veel neerslag in korte tijd.Verkeer en buitenactiviteiten kunnen hinder ondervinden.Mijd open water en open gebied, schuil niet onder bomen.Volg weerberichten en waarschuwingen.

15 daagse weersverwachting Allschwil (CH)

  • Overzicht
  • Per uur
  • 15 dagen
  • Extra
  • Vergelijk
  • Kaarten
  • Dagkaart
  • Meer »
  • Info
  • Statistieken
  • Directe link
    Temp 6h Neerslag Wind  
 06:02     21:11    Daglengte: 15:09 Vandaag
20:00
21°
 
2
 06:03     21:10    Daglengte: 15:07 Morgen
02:00
16°
 
2
08:00
16°
 
1
14:00
24°
 
1
20:00
22°
 
2
 06:05     21:09    Daglengte: 15:04 Woensdag 28 Jul
02:00
17°
6.0 mm
2
warningclass
08:00
17°
5.9 mm
1
14:00
22°
3.9 mm
3
20:00
23°
 
3
 06:06     21:07    Daglengte: 15:01 Donderdag 29 Jul
02:00
17°
 
1
08:00
18°
 
2
Locatie info
Region: Arlesheim
Latitude: 47.5516°N
Longitude: 7.5381°E
288 masl
Postcode: 4123
Temp/Neerslag /Baro Onweer/Dauwpunt
    Temp Baro 1h Neerslag Dauwpunt Wind UV Bewolking  
 06:02     21:11    Daglengte: 15:09 Vandaag
16:00
23°
1013.4 hPa
49%
16.0°
3
Windvlaag: 1.5 m/s
47%
17:00
23°
1013.3 hPa
82%
15.2°
3
Windvlaag: 1.8 m/s
47%
18:00
23°
1013.5 hPa
79%
15.1°
3
Windvlaag: 1.8 m/s
36%
19:00
22°
1013.6 hPa
72%
15.7°
3
Windvlaag: 1.9 m/s
37%
20:00
21°
1014.0 hPa
26%
15.8°
2
Windvlaag: 1.2 m/s
23%
21:00
20°
1014.3 hPa
18%
16.9°
2
Windvlaag: 1.1 m/s
11%
22:00
19°
1015.1 hPa
14%
16.8°
1
Windvlaag: 1.3 m/s
9%
23:00
18°
1015.4 hPa
14%
16.4°
1
Windvlaag: 1.2 m/s
5%
 06:03     21:10    Daglengte: 15:07 Morgen
00:00
17°
1015.7 hPa
14%
16.0°
2
Windvlaag: 1.7 m/s
4%
01:00
17°
1015.6 hPa
14%
15.3°
1
Windvlaag: 2 m/s
4%
02:00
16°
1015.7 hPa
14%
14.4°
2
Windvlaag: 2 m/s
8%
03:00
15°
1015.7 hPa
14%
13.7°
2
Windvlaag: 2.4 m/s
8%
04:00
15°
1015.4 hPa
14%
13.4°
1
Windvlaag: 2.1 m/s
5%
05:00
14°
1015.3 hPa
15%
13.2°
1
Windvlaag: 2.2 m/s
14%
06:00
14°
1015.3 hPa
14%
12.9°
1
Windvlaag: 2.1 m/s
18%
07:00
14°
1015.5 hPa
14%
13.2°
1
Windvlaag: 2.1 m/s
17%
08:00
16°
1015.4 hPa
14%
14.2°
1
Windvlaag: 1.8 m/s
43%
09:00
18°
1015.4 hPa
14%
15.5°
1
Windvlaag: 2.3 m/s
49%
10:00
19°
1015.4 hPa
14%
16.1°
1
Windvlaag: 1.6 m/s
57%
11:00
21°
1015.1 hPa
14%
16.1°
1
Windvlaag: 1.5 m/s
73%
12:00
22°
1014.9 hPa
14%
15.1°
1
Windvlaag: 0.7 m/s
71%
13:00
23°
1014.5 hPa
14%
14.4°
1
Windvlaag: 1.8 m/s
74%
14:00
24°
1013.9 hPa
14%
15.3°
1
Windvlaag: 2.2 m/s
81%
15:00
24°
1013.6 hPa
14%
15.5°
1
Windvlaag: 1.5 m/s
86%
16:00
24°
1013.3 hPa
19%
16.2°
1
Windvlaag: 2.8 m/s
84%
17:00
24°
1013.3 hPa
61%
17.8°
1
Windvlaag: 2.8 m/s
80%
18:00
23°
1013.2 hPa
23%
18.4°
2
Windvlaag: 2.6 m/s
75%
19:00
23°
1013.1 hPa
61%
18.7°
2
Windvlaag: 2.5 m/s
71%
20:00
22°
1013.2 hPa
20%
17.2°
2
Windvlaag: 1.4 m/s
60%
21:00
21°
1013.4 hPa 0.9 mm
80%
18.0°
2
Windvlaag: 2 m/s
86%
22:00
19°
1014.4 hPa
82%
17.8°
2
Windvlaag: 2.4 m/s
84% warningclass
23:00
19°
1014.6 hPa 2.7 mm
81%
17.9°
1
Windvlaag: 2.7 m/s
80%
 06:05     21:09    Daglengte: 15:04 Woensdag 28 Jul
00:00
18°
1014.9 hPa
82%
17.8°
2
Windvlaag: 3 m/s
69%
01:00
18°
1015.1 hPa 2.5 mm
76%
17.2°
1
Windvlaag: 1.7 m/s
58%
02:00
17°
1015.1 hPa
82%
16.4°
2
Windvlaag: 2.2 m/s
65% warningclass
03:00
17°
1015.3 hPa 3.2 mm
82%
15.7°
2
Windvlaag: 2.9 m/s
55%
04:00
16°
1015.0 hPa 2.7 mm
76%
15.3°
1
Windvlaag: 2.7 m/s
23%
05:00
16°
1015.2 hPa
22%
15.1°
1
Windvlaag: 1.8 m/s
20%
06:00
16°
1015.4 hPa
16%
14.8°
1
Windvlaag: 1.6 m/s
57%
07:00
16°
1015.7 hPa
22%
14.7°
1
Windvlaag: 1 m/s
83%
08:00
17°
1015.8 hPa
71%
15.3°
1
Windvlaag: 1.9 m/s
68%
09:00
18°
1015.8 hPa
71%
15.9°
1
Windvlaag: 3.9 m/s
86%
10:00
19°
1016.1 hPa
31%
15.9°
2
Windvlaag: 3.5 m/s
85%
11:00
19°
1015.5 hPa
82%
14.5°
2
Windvlaag: 1.9 m/s
99%
12:00
20°
1015.6 hPa 3.9 mm
94%
14.0°
2
Windvlaag: 4.1 m/s
91%
13:00
21°
1015.4 hPa
55%
14.3°
3
Windvlaag: 4.6 m/s
62%
14:00
22°
1015.0 hPa
92%
14.6°
3
Windvlaag: 4.6 m/s
53%
15:00
23°
1014.8 hPa
38%
15.7°
3
Windvlaag: 0.7 m/s
27%
16:00
24°
1014.6 hPa
28%
15.6°
3
Windvlaag: 1.2 m/s
24%
17:00
24°
1014.5 hPa
23%
15.2°
4
Windvlaag: 1.2 m/s
18%
18:00
24°
1014.2 hPa
22%
15.2°
4
Windvlaag: 1.4 m/s
16%
19:00
23°
1014.0 hPa
21%
14.6°
3
Windvlaag: 1.9 m/s
16%
20:00
23°
1014.3 hPa
21%
14.5°
3
Windvlaag: 1.7 m/s
6%
21:00
21°
1014.5 hPa
21%
13.4°
1
Windvlaag: 1.5 m/s
1%
22:00
19°
1014.8 hPa
21%
14.1°
1
Windvlaag: 0.4 m/s
15%
23:00
19°
1015.0 hPa
21%
13.9°
1
Windvlaag: 1.5 m/s
58%
 06:06     21:07    Daglengte: 15:01 Donderdag 29 Jul
00:00
18°
1014.9 hPa
21%
13.1°
2
Windvlaag: 1.7 m/s
63%
01:00
18°
1014.8 hPa
21%
12.9°
2
Windvlaag: 1.9 m/s
64%
02:00
17°
1014.6 hPa
21%
12.5°
1
Windvlaag: 2.1 m/s
51%
03:00
17°
1014.4 hPa
21%
12.2°
1
Windvlaag: 2.5 m/s
60%
04:00
16°
1014.3 hPa
21%
12.1°
1
Windvlaag: 2.2 m/s
47%
05:00
16°
1014.5 hPa
21%
11.7°
1
Windvlaag: 2 m/s
51%
06:00
16°
1014.6 hPa
21%
12.3°
1
Windvlaag: 1.7 m/s
45%
07:00
16°
1014.9 hPa
21%
12.3°
1
Windvlaag: 2 m/s
27%
08:00
18°
1015.1 hPa
21%
11.8°
2
Windvlaag: 2.5 m/s
23%
09:00
20°
1015.8 hPa
21%
12.8°
1
Windvlaag: 7.5 m/s
12%
10:00
21°
1015.6 hPa
21%
13.3°
3
Windvlaag: 7.5 m/s
10%
11:00
21°
1015.7 hPa
21%
13.5°
3
Windvlaag: 8.2 m/s
11%
12:00
22°
1015.6 hPa
22%
14.2°
4
Windvlaag: 8.8 m/s
72%
13:00
23°
1015.1 hPa
21%
14.9°
3
Windvlaag: 8.6 m/s
52%
14:00
23°
1014.6 hPa
22%
15.8°
4
Windvlaag: 8.2 m/s
45%
Temp/Neerslag /Baro Onweer/Dauwpunt
    Temp Baro Neerslag Dauwpunt Wind Bewolking  
 06:02     21:11    Daglengte: 15:09 Vandaag
17:00
23°
1013.3 hPa   15.2°
3
47%
20:00
21°
1014.0 hPa   15.8°
2
23%
23:00
18°
1015.4 hPa   16.4°
1
5%
 06:03     21:10    Daglengte: 15:07 Morgen
02:00
16°
1015.7 hPa   14.4°
2
8%
05:00
14°
1015.3 hPa   13.2°
1
14%
08:00
16°
1015.4 hPa   14.2°
1
43%
11:00
21°
1015.1 hPa   16.1°
1
73%
14:00
24°
1013.9 hPa   15.3°
1
81%
17:00
24°
1013.3 hPa   17.8°
1
80%
20:00
22°
1013.2 hPa   17.2°
2
60%
23:00
19°
1014.6 hPa 3.6 mm 17.9°
1
80%
 06:05     21:09    Daglengte: 15:04 Woensdag 28 Jul
02:00
17°
1015.1 hPa 2.5 mm 16.4°
2
65% warningclass
05:00
16°
1015.2 hPa 5.9 mm 15.1°
1
20%
08:00
17°
1015.8 hPa   15.3°
1
68%
11:00
19°
1015.5 hPa   14.5°
2
99%
14:00
22°
1015.0 hPa 3.9 mm 14.6°
3
53%
17:00
24°
1014.5 hPa   15.2°
4
18%
20:00
23°
1014.3 hPa   14.5°
3
6%
23:00
19°
1015.0 hPa   13.9°
1
58%
 06:06     21:07    Daglengte: 15:01 Donderdag 29 Jul
02:00
17°
1014.6 hPa   12.5°
1
51%
05:00
16°
1014.5 hPa   11.7°
1
51%
08:00
18°
1015.1 hPa   11.8°
2
23%
11:00
21°
1015.7 hPa   13.5°
3
11%
14:00
23°
1014.6 hPa   15.8°
4
45%
17:00
23°
1014.8 hPa 15.8 mm 16.9°
4
1%
20:00
20°
1014.6 hPa 15.8 mm 17.4°
1
1%
23:00
16°
1015.0 hPa 15.8 mm 14.7°
1
0%
 06:07     21:06    Daglengte: 14:59 Vrijdag 30 Jul
02:00
15°
1015.2 hPa 15.8 mm 13.4°
1
0%
05:00
14°
1014.6 hPa 15.8 mm 13.1°
1
0%
08:00
17°
1014.2 hPa 15.8 mm 14.9°
1
0%
11:00
23°
1012.6 hPa 15.8 mm 17.5°
1
0%
14:00
25°
1010.9 hPa 15.8 mm 18.9°
3
0%
17:00
26°
1010.1 hPa 16.1 mm 19.4°
1
0%
20:00
23°
1009.8 hPa 16.8 mm 20.1°
1
0%
23:00
18°
1011.3 hPa 20.1 mm 17.6°
2
1%
 06:08     21:05    Daglengte: 14:57 Zaterdag 31 Jul
02:00
17°
1011.7 hPa 21.0 mm 16.5°
2
1%
05:00
16°
1011.4 hPa 21.2 mm 15.0°
2
0%
08:00
17°
1012.2 hPa 21.2 mm 15.8°
1
0%
11:00
18°
1012.7 hPa 21.4 mm 15.7°
3
0%
14:00
20°
1012.3 hPa 21.7 mm 15.5°
5
1%
17:00
20°
1012.3 hPa 21.8 mm 15.0°
5
1%
20:00
18°
1012.9 hPa 21.8 mm 12.8°
2
1%
23:00
15°
1013.4 hPa 21.8 mm 10.1°
2
1%
 06:10     21:03    Daglengte: 14:53 Zondag 01 Aug
02:00
14°
1012.8 hPa 21.8 mm 8.7°
1
1%
05:00
14°
1012.1 hPa 21.8 mm 8.5°
1
1%
08:00
15°
1012.0 hPa 21.9 mm 10.3°
1
1%
11:00
16°
1012.8 hPa 22.7 mm 13.3°
1
1%
14:00
19°
1012.5 hPa 25.0 mm 14.8°
4
1%
17:00
19°
1012.7 hPa 26.8 mm 14.6°
5
0%
20:00
16°
1013.7 hPa 28.0 mm 14.6°
3
0%
23:00
14°
1015.6 hPa 28.3 mm 12.6°
2
1%
 06:11     21:02    Daglengte: 14:51 Maandag 02 Aug
02:00
13°
1016.1 hPa 28.3 mm 11.6°
2
1%
05:00
12°
1016.1 hPa 28.3 mm 10.9°
1
1%
08:00
14°
1016.8 hPa 28.3 mm 12.3°
1
0%
11:00
18°
1016.9 hPa 28.9 mm 14.7°
1
0%
14:00
21°
1016.3 hPa 58.0 mm 12.3°
2
1%
20:00
18°
1015.9 hPa 58.4 mm 14.9°
2
0%
 06:12     21:01    Daglengte: 14:49 Dinsdag 03 Aug
02:00
14°
1017.5 hPa 58.8 mm 12.0°
1
0%
08:00
16°
1018.6 hPa 58.8 mm 13.1°
1
1%
14:00
23°
1017.1 hPa 58.8 mm 14.0°
3
0%
20:00
20°
1016.9 hPa 59.0 mm 16.1°
2
0%
 06:13     20:59    Daglengte: 14:46 Woensdag 04 Aug
02:00
15°
1017.8 hPa 59.0 mm 12.7°
1
0%
08:00
17°
1016.8 hPa 59.0 mm 13.8°
1
1%
14:00
27°
1014.0 hPa 59.0 mm 17.6°
2
0%
20:00
22°
1013.7 hPa 59.2 mm 19.2°
1
1%
 06:15     20:58    Daglengte: 14:43 Donderdag 05 Aug
02:00
17°
1014.7 hPa 60.9 mm 16.3°
2
1%
08:00
18°
1013.1 hPa 63.4 mm 16.4°
1
1%
14:00
23°
1013.9 hPa 1.7 mm 14.3°
2
65%
20:00
19°
1012.8 hPa 1.8 mm 15.2°
1
73%
 06:16     20:56    Daglengte: 14:40 Vrijdag 06 Aug
02:00
16°
1013.0 hPa 1.7 mm 13.4°
1
76%
08:00
16°
1012.7 hPa 1.5 mm 13.4°
2
77%
14:00
20°
1012.1 hPa 1.9 mm 14.2°
3
74%
20:00
18°
1011.8 hPa 2.2 mm 14.2°
2
71%
 06:17     20:54    Daglengte: 14:37 Zaterdag 07 Aug
02:00
14°
1013.2 hPa 2.0 mm 12.1°
2
66%
08:00
14°
1013.3 hPa 0.9 mm 12.3°
2
65%
14:00
19°
1013.1 hPa 1.7 mm 12.8°
4
59%
20:00
17°
1014.0 hPa 2.6 mm 13.2°
2
63%
 06:19     20:53    Daglengte: 14:34 Zondag 08 Aug
02:00
13°
1016.1 hPa 1.4 mm 11.0°
2
60%
08:00
14°
1016.5 hPa 0.3 mm 11.3°
2
56%
14:00
20°
1016.1 hPa 0.8 mm 12.7°
3
61%
20:00
18°
1016.5 hPa 1.5 mm 13.4°
1
53%
 06:20     20:51    Daglengte: 14:31 Maandag 09 Aug
02:00
14°
1018.3 hPa 0.7 mm 11.5°
2
48%
08:00
14°
1018.4 hPa 0.5 mm 11.7°
2
51%
14:00
21°
1017.8 hPa 0.5 mm 12.7°
2
52%
20:00
18°
1018.2 hPa 0.6 mm 13.6°
1
53%
 06:21     20:50    Daglengte: 14:29 Dinsdag 10 Aug
02:00
14°
1019.7 hPa 1.0 mm 11.6°
1
46%
08:00
15°
1019.8 hPa 0.8 mm 12.1°
1
51%
14:00
22°
1018.9 hPa 1.2 mm 13.6°
2
53%
  CAPE Lifted Index Hail Supercell Tornado SRH 3km CL BTM PRES CL TOP PRES Swiss DWD icon SMHI TS
 06:02     21:11    Daglengte: 15:09 Vandaag
16:00 970 J/kg -2.9 K 0 % 0 % 0 % 0 m²/s² 0 0 -2 3
17:00 1021 J/kg -3.6 K 0 % 0 % 0 % 0 m²/s² 0 0 -1.23 3
18:00 835 J/kg -3.3 K 0 % 0 % 0 % 0 m²/s² 0 0 -0.63 80
19:00 815 J/kg -3.2 K 0 % 0 % 0 % 0 m²/s² 0 0 -0.38 3
20:00 964 J/kg -3.6 K 0 % 0 % 0 % 0 m²/s² 0 0 -1.02 3
21:00 1066 J/kg -4.1 K 0 % 0 % 0 % 0 m²/s² 0 0 -1.52 1
22:00 852 J/kg -3.5 K 0 % 0 % 0 % 0 m²/s² 0 0 -0.71 1
23:00 602 J/kg -2.1 K 0 % 0 % 0 % 0 m²/s² 0 0 0.63 2
 06:03     21:10    Daglengte: 15:07 Morgen
00:00 428 J/kg -1.3 K 0 % 0 % 0 % 0 m²/s² 0 0 0.29 1
01:00 121 J/kg 0.0 K 0 % 0 % 0 % 0 m²/s² 0 0 1.41 0
02:00 29 J/kg 0.2 K 0 % 0 % 0 % 0 m²/s² 0 0 1.61 1
03:00 0 J/kg -0.2 K 0 % 0 % 0 % 0 m²/s² 0 0 1.57 1
04:00 0 J/kg 0.0 K 0 % 0 % 0 % 0 m²/s² 0 0 2.01 1
05:00 0 J/kg 0.3 K 0 % 0 % 0 % 0 m²/s² 0 0 2.52 0
06:00 0 J/kg 0.5 K 0 % 0 % 0 % 0 m²/s² 0 0 2.93 1
07:00 0 J/kg 0.8 K 0 % 0 % 0 % 0 m²/s² 0 0 3.53 1
08:00 3 J/kg 0.7 K 0 % 0 % 0 % 0 m²/s² 0 0 3.28 2
09:00 52 J/kg 0.5 K 0 % 0 % 0 % 0 m²/s² 0 0 2.57 3
10:00 130 J/kg -0.4 K 0 % 0 % 0 % 0 m²/s² 0 0 1.37 3
11:00 238 J/kg -0.9 K 0 % 0 % 0 % 0 m²/s² 0 0 0.57 3
12:00 322 J/kg -1.2 K 0 % 0 % 0 % 0 m²/s² 0 0 0.33 3
13:00 315 J/kg -1.2 K 0 % 0 % 0 % 0 m²/s² 0 0 0.96 3
14:00 362 J/kg -1.6 K 0 % 0 % 0 % 0 m²/s² 0 0 0.5 3
15:00 384 J/kg -1.5 K 0 % 0 % 0 % 0 m²/s² 0 0 -1.11 3
16:00 364 J/kg -1.3 K 0 % 0 % 0 % 0 m²/s² 0 0 -0.7 3
17:00 363 J/kg -1.6 K 0 % 0 % 0 % 0 m²/s² 0 0 -0.88 3
18:00 398 J/kg -1.6 K 0 % 0 % 0 % 0 m²/s² 0 0 -1.42 3
19:00 452 J/kg -1.9 K 0 % 0 % 0 % 0 m²/s² 0 0 -1.87 3
20:00 480 J/kg -2.0 K 0 % 0 % 0 % 0 m²/s² 0 0 -1.97 3
21:00 487 J/kg -2.0 K 0 % 0 % 0 % 0 m²/s² 0 0 -2 3
22:00 60 J/kg 0.6 K 0 % 0 % 0 % 0 m²/s² 0 0 0.6 95
23:00 0 J/kg 0.9 K 0 % 0 % 0 % 0 m²/s² 0 0 0.9 81
 06:05     21:09    Daglengte: 15:04 Woensdag 28 Jul
00:00 0 J/kg 0.4 K 0 % 0 % 0 % 0 m²/s² 0 0 0.4 61
01:00 0 J/kg 0.8 K 0 % 0 % 0 % 0 m²/s² 0 0 1.1 61
02:00 0 J/kg 1.2 K 0 % 0 % 0 % 0 m²/s² 0 0 1.2 95
03:00 2 J/kg 2.6 K 0 % 0 % 0 % 0 m²/s² 0 0 2.72 80
04:00 0 J/kg 2.9 K 0 % 0 % 0 % 0 m²/s² 0 0 3.53 80
05:00 37 J/kg 2.8 K 0 % 0 % 0 % 0 m²/s² 0 0 3.46 2
06:00 56 J/kg 2.2 K 0 % 0 % 0 % 0 m²/s² 0 0 3.25 3
07:00 48 J/kg 1.6 K 0 % 0 % 0 % 0 m²/s² 0 0 3.82 3
08:00 65 J/kg 1.4 K 0 % 0 % 0 % 0 m²/s² 0 0 3.92 3
09:00 38 J/kg 1.7 K 0 % 0 % 0 % 0 m²/s² 0 0 4.28 3
10:00 152 J/kg 0.1 K 0 % 0 % 0 % 0 m²/s² 0 0 3.16 3
11:00 452 J/kg -1.2 K 0 % 0 % 0 % 0 m²/s² 0 0 2.31 3
12:00 646 J/kg -1.9 K 0 % 0 % 0 % 0 m²/s² 0 0 2.66 80
13:00 623 J/kg -2.1 K 0 % 0 % 0 % 0 m²/s² 0 0 3.36 3
14:00 529 J/kg -2.1 K 0 % 0 % 0 % 0 m²/s² 0 0 3.24 3
15:00 466 J/kg -2.1 K 0 % 0 % 0 % 0 m²/s² 0 0 2.97 3
16:00 392 J/kg -1.9 K 0 % 0 % 0 % 0 m²/s² 0 0 3.32 2
17:00 251 J/kg -1.2 K 0 % 0 % 0 % 0 m²/s² 0 0 4.32 2
18:00 192 J/kg -0.7 K 0 % 0 % 0 % 0 m²/s² 0 0 5.45 2
19:00 70 J/kg 0.2 K 0 % 0 % 0 % 0 m²/s² 0 0 6.71 1
20:00 14 J/kg 1.1 K 0 % 0 % 0 % 0 m²/s² 0 0 7.43 2
21:00 2 J/kg 1.5 K 0 % 0 % 0 % 0 m²/s² 0 0 6.9 2
22:00 0 J/kg 2.3 K 0 % 0 % 0 % 0 m²/s² 0 0 6.26 2
23:00 0 J/kg 2.8 K 0 % 0 % 0 % 0 m²/s² 0 0 6.46 2
 06:06     21:07    Daglengte: 15:01 Donderdag 29 Jul
00:00 0 J/kg 2.6 K 0 % 0 % 0 % 0 m²/s² 0 0 6.26 3
01:00 0 J/kg 2.1 K 0 % 0 % 0 % 0 m²/s² 0 0 5.31 3
02:00 0 J/kg 1.7 K 0 % 0 % 0 % 0 m²/s² 0 0 4.64 2
03:00 0 J/kg 1.6 K 0 % 0 % 0 % 0 m²/s² 0 0 4.39 2
04:00 0 J/kg 1.9 K 0 % 0 % 0 % 0 m²/s² 0 0 5.77 2
05:00 0 J/kg 2.3 K 0 % 0 % 0 % 0 m²/s² 0 0 6.68 2
06:00 0 J/kg 2.7 K 0 % 0 % 0 % 0 m²/s² 0 0 7.56 2
07:00 0 J/kg 3.2 K 0 % 0 % 0 % 0 m²/s² 0 0 7.94 1
08:00 0 J/kg 3.9 K 0 % 0 % 0 % 0 m²/s² 0 0 8.88 1
09:00 0 J/kg 4.3 K 0 % 0 % 0 % 0 m²/s² 0 0 9.43 1
10:00 0 J/kg 4.1 K 0 % 0 % 0 % 0 m²/s² 0 0 9.8 2
11:00 0 J/kg 4.0 K 0 % 0 % 0 % 0 m²/s² 0 0 10.03 2
12:00 0 J/kg 3.2 K 0 % 0 % 0 % 0 m²/s² 0 0 9.41 3
13:00 0 J/kg 2.3 K 0 % 0 % 0 % 0 m²/s² 0 0 8.33 3
14:00 1 J/kg 1.3 K 0 % 0 % 0 % 0 m²/s² 0 0 7.48 2
Temp Baro Wind Neerslag
  EWN Forecast EWN WRFDA DWD ICON FMI HIRLAM MET Norway GFS
 06:02     21:11    Daglengte: 15:09 Vandaag
17:00 23.0° 1013.3 hPa 3.1 m/s 0.0 mm 23.6° 1011.4 hPa 2.0 m/s 1.4 mm 21.8° 1014.1 hPa 2.5 m/s 0.7 mm 24.0° 1013.1 hPa 3.4 m/s 0.0 mm 22.1° 1013.6 hPa 3.8 m/s
20:00 21.3° 1014.0 hPa 2.0 m/s 0.0 mm 22.6° 1012.3 hPa 3.2 m/s 2.8 mm 20.8° 1014.3 hPa 1.5 m/s 0.7 mm 21.4° 1013.7 hPa 1.7 m/s 0.0 mm 19.6° 1014.4 hPa 1.8 m/s
23:00 17.6° 1015.4 hPa 1.5 m/s 0.0 mm 18.2° 1013.7 hPa 3.0 m/s 2.8 mm 17.5° 1015.7 hPa 1.6 m/s 0.0 mm 17.5° 1015.6 hPa 1.4 m/s 0.0 mm 16.3° 1015.9 hPa 1.4 m/s
 06:03     21:10    Daglengte: 15:07 Morgen
02:00 16.1° 1015.7 hPa 1.6 m/s 0.0 mm 17.2° 1014.5 hPa 3.3 m/s 2.8 mm 15.2° 1015.8 hPa 1.1 m/s 0.0 mm 16.1° 1015.6 hPa 2.1 m/s 0.0 mm 15.0° 1016.5 hPa 1.7 m/s
05:00 14.4° 1015.3 hPa 1.3 m/s 0.0 mm 15.9° 1013.9 hPa 2.8 m/s 2.8 mm 13.6° 1015.8 hPa 1.0 m/s 0.0 mm 14.3° 1015.4 hPa 1.0 m/s 0.0 mm 14.1° 1015.8 hPa 1.5 m/s
08:00 15.8° 1015.4 hPa 1.1 m/s 0.0 mm 18.5° 1013.9 hPa 1.0 m/s 2.8 mm 15.6° 1016.1 hPa 0.8 m/s 0.0 mm 15.5° 1015.3 hPa 1.2 m/s 0.0 mm 16.4° 1015.4 hPa 1.5 m/s
11:00 21.1° 1015.1 hPa 0.9 m/s 0.0 mm 22.0° 1014.1 hPa 0.8 m/s 2.8 mm 20.8° 1015.3 hPa 1.4 m/s 0.0 mm 21.2° 1014.9 hPa 0.9 m/s 0.0 mm 20.8° 1014.5 hPa 0.6 m/s
14:00 23.8° 1013.9 hPa 0.6 m/s 0.0 mm 24.8° 1013.4 hPa 1.2 m/s 2.8 mm 23.8° 1014.1 hPa 0.4 m/s 0.0 mm 23.8° 1013.9 hPa 0.6 m/s 0.0 mm 23.0° 1013.9 hPa 0.7 m/s
17:00 23.6° 1013.3 hPa 1.2 m/s 0.0 mm 20.3° 1013.6 hPa 4.1 m/s 5.8 mm 23.9° 1013.3 hPa 0.3 m/s 0.0 mm 23.7° 1013.5 hPa 2.5 m/s 0.0 mm 21.9° 1013.5 hPa 0.9 m/s
20:00 22.0° 1013.2 hPa 1.6 m/s 0.0 mm 21.0° 1013.9 hPa 0.8 m/s 10.0 mm 23.1° 1013.1 hPa 0.6 m/s 0.0 mm 21.9° 1013.9 hPa 1.8 m/s 0.0 mm 19.2° 1014.4 hPa 1.5 m/s
23:00 18.7° 1014.6 hPa 1.5 m/s 3.6 mm 17.2° 1013.9 hPa 2.2 m/s 14.6 mm 18.9° 1014.6 hPa 1.3 m/s 5.6 mm 17.8° 1015.6 hPa 0.9 m/s 0.0 mm 16.4° 1016.7 hPa 2.5 m/s
 06:05     21:09    Daglengte: 15:04 Woensdag 28 Jul
02:00 17.1° 1015.1 hPa 1.8 m/s 2.5 mm 17.6° 1013.6 hPa 1.9 m/s 33.8 mm 18.3° 1014.6 hPa 1.2 m/s 2.1 mm 15.4° 1015.3 hPa 1.0 m/s 0.0 mm 15.7° 1015.4 hPa 1.4 m/s
05:00 16.3° 1015.2 hPa 1.1 m/s 5.9 mm 17.5° 1013.7 hPa 2.8 m/s 34.2 mm 16.9° 1015.0 hPa 0.8 m/s 2.5 mm 15.0° 1015.3 hPa 0.7 m/s 0.0 mm 15.7° 1015.6 hPa 0.8 m/s
08:00 16.6° 1015.8 hPa 0.9 m/s 0.0 mm 18.2° 1013.8 hPa 1.8 m/s 34.2 mm 17.5° 1015.3 hPa 0.6 m/s 0.0 mm 16.4° 1016.1 hPa 0.8 m/s 0.0 mm 16.3° 1015.6 hPa 0.7 m/s
11:00 19.1° 1015.5 hPa 1.7 m/s 0.0 mm 20.7° 1013.6 hPa 3.5 m/s 34.2 mm 19.2° 1015.6 hPa 1.6 m/s 0.2 mm 19.8° 1015.6 hPa 2.2 m/s
14:00 21.9° 1015.0 hPa 2.7 m/s 3.9 mm 23.5° 1013.0 hPa 3.5 m/s 34.4 mm 20.8° 1015.2 hPa 3.0 m/s 0.2 mm 22.6° 1015.1 hPa 2.8 m/s
17:00 23.9° 1014.5 hPa 3.6 m/s 0.0 mm 24.5° 1012.6 hPa 3.8 m/s 34.5 mm 23.2° 1014.9 hPa 3.7 m/s 0.0 mm 23.5° 1014.4 hPa 3.0 m/s
20:00 22.5° 1014.3 hPa 2.8 m/s 0.0 mm 23.4° 1012.5 hPa 3.0 m/s 34.5 mm 21.8° 1014.9 hPa 1.7 m/s 0.0 mm 20.4° 1014.9 hPa 1.6 m/s
23:00 18.6° 1015.0 hPa 1.4 m/s 0.0 mm 18.8° 1012.7 hPa 2.5 m/s 34.5 mm 18.5° 1015.8 hPa 1.2 m/s 0.0 mm 16.9° 1015.6 hPa 1.5 m/s
 06:06     21:07    Daglengte: 15:01 Donderdag 29 Jul
02:00 17.3° 1014.6 hPa 1.4 m/s 0.0 mm 19.5° 1012.4 hPa 1.4 m/s 34.5 mm 17.3° 1015.4 hPa 1.2 m/s 0.0 mm 18.0° 1015.1 hPa 1.1 m/s
05:00 15.7° 1014.5 hPa 1.2 m/s 0.0 mm 18.3° 1012.6 hPa 1.4 m/s 34.6 mm 15.3° 1015.5 hPa 1.2 m/s 0.0 mm 17.9° 1014.8 hPa 1.5 m/s
08:00 17.9° 1015.1 hPa 2.0 m/s 0.0 mm 19.9° 1013.0 hPa 3.4 m/s 34.7 mm 16.9° 1016.1 hPa 0.8 m/s 0.0 mm 18.7° 1015.5 hPa 1.2 m/s
11:00 21.3° 1015.7 hPa 3.0 m/s 0.0 mm 21.4° 1013.2 hPa 4.7 m/s 34.7 mm 21.2° 1016.3 hPa 2.6 m/s 0.0 mm 21.4° 1016.1 hPa 3.6 m/s
14:00 23.4° 1014.6 hPa 3.9 m/s 0.0 mm 22.9° 1013.1 hPa 6.1 m/s 34.7 mm 23.5° 1015.0 hPa 3.3 m/s 0.0 mm 22.5° 1015.7 hPa 3.8 m/s
17:00 22.6° 1014.8 hPa 3.5 m/s 15.8 mm 22.6° 1014.8 hPa 3.5 m/s 15.8 mm
20:00 20.3° 1014.6 hPa 1.1 m/s 15.8 mm 20.3° 1014.6 hPa 1.1 m/s 15.8 mm
23:00 16.3° 1015.0 hPa 1.2 m/s 15.8 mm 16.3° 1015.0 hPa 1.2 m/s 15.8 mm
 06:07     21:06    Daglengte: 14:59 Vrijdag 30 Jul
02:00 14.9° 1015.2 hPa 0.7 m/s 15.8 mm 14.9° 1015.2 hPa 0.7 m/s 15.8 mm
05:00 14.2° 1014.6 hPa 1.2 m/s 15.8 mm 14.2° 1014.6 hPa 1.2 m/s 15.8 mm
08:00 16.9° 1014.2 hPa 0.7 m/s 15.8 mm 16.9° 1014.2 hPa 0.7 m/s 15.8 mm
11:00 22.7° 1012.6 hPa 0.8 m/s 15.8 mm 22.7° 1012.6 hPa 0.8 m/s 15.8 mm
14:00 24.9° 1010.9 hPa 2.5 m/s 15.8 mm 24.9° 1010.9 hPa 2.5 m/s 15.8 mm
17:00 25.6° 1010.1 hPa 1.0 m/s 16.1 mm 25.6° 1010.1 hPa 1.0 m/s 16.1 mm
20:00 22.6° 1009.8 hPa 1.3 m/s 16.8 mm 22.6° 1009.8 hPa 1.3 m/s 16.8 mm
23:00 18.3° 1011.3 hPa 2.0 m/s 20.1 mm 18.3° 1011.3 hPa 2.0 m/s 20.1 mm
 06:08     21:05    Daglengte: 14:57 Zaterdag 31 Jul
02:00 17.2° 1011.7 hPa 2.1 m/s 21.0 mm 17.2° 1011.7 hPa 2.1 m/s 21.0 mm
05:00 16.2° 1011.4 hPa 1.6 m/s 21.2 mm 16.2° 1011.4 hPa 1.6 m/s 21.2 mm
08:00 17.3° 1012.2 hPa 1.3 m/s 21.2 mm 17.3° 1012.2 hPa 1.3 m/s 21.2 mm
11:00 18.5° 1012.7 hPa 3.1 m/s 21.4 mm 18.5° 1012.7 hPa 3.1 m/s 21.4 mm
14:00 20.0° 1012.3 hPa 4.5 m/s 21.7 mm 20.0° 1012.3 hPa 4.5 m/s 21.7 mm
17:00 20.4° 1012.3 hPa 4.8 m/s 21.8 mm 20.4° 1012.3 hPa 4.8 m/s 21.8 mm
20:00 17.6° 1012.9 hPa 2.0 m/s 21.8 mm 17.6° 1012.9 hPa 2.0 m/s 21.8 mm
23:00 15.0° 1013.4 hPa 1.6 m/s 21.8 mm 15.0° 1013.4 hPa 1.6 m/s 21.8 mm
 06:10     21:03    Daglengte: 14:53 Zondag 01 Aug
02:00 14.2° 1012.8 hPa 1.1 m/s 21.8 mm 14.2° 1012.8 hPa 1.1 m/s 21.8 mm
05:00 13.8° 1012.1 hPa 1.1 m/s 21.8 mm 13.8° 1012.1 hPa 1.1 m/s 21.8 mm
08:00 14.7° 1012.0 hPa 1.4 m/s 21.9 mm 14.7° 1012.0 hPa 1.4 m/s 21.9 mm
11:00 15.8° 1012.8 hPa 0.7 m/s 22.7 mm 15.8° 1012.8 hPa 0.7 m/s 22.7 mm
14:00 18.7° 1012.5 hPa 3.8 m/s 25.0 mm 18.7° 1012.5 hPa 3.8 m/s 25.0 mm
17:00 18.9° 1012.7 hPa 4.8 m/s 26.8 mm 18.9° 1012.7 hPa 4.8 m/s 26.8 mm
20:00 16.0° 1013.7 hPa 3.5 m/s 28.0 mm 16.0° 1013.7 hPa 3.5 m/s 28.0 mm
23:00 13.6° 1015.6 hPa 2.1 m/s 28.3 mm 13.6° 1015.6 hPa 2.1 m/s 28.3 mm
 06:11     21:02    Daglengte: 14:51 Maandag 02 Aug
02:00 12.9° 1016.1 hPa 1.6 m/s 28.3 mm 12.9° 1016.1 hPa 1.6 m/s 28.3 mm
05:00 12.4° 1016.1 hPa 1.3 m/s 28.3 mm 12.4° 1016.1 hPa 1.3 m/s 28.3 mm
08:00 14.3° 1016.8 hPa 0.8 m/s 28.3 mm 14.3° 1016.8 hPa 0.8 m/s 28.3 mm
11:00 18.1° 1016.9 hPa 0.9 m/s 28.9 mm 18.1° 1016.9 hPa 0.9 m/s 28.9 mm
14:00 21.3° 1016.3 hPa 1.9 m/s 29.0 mm 21.3° 1016.3 hPa 1.9 m/s 29.0 mm
20:00 18.2° 1015.9 hPa 1.8 m/s 29.4 mm 18.2° 1015.9 hPa 1.8 m/s 29.4 mm
 06:12     21:01    Daglengte: 14:49 Dinsdag 03 Aug
02:00 13.5° 1017.5 hPa 1.1 m/s 29.4 mm 13.5° 1017.5 hPa 1.1 m/s 29.4 mm
08:00 15.6° 1018.6 hPa 1.0 m/s 29.4 mm 15.6° 1018.6 hPa 1.0 m/s 29.4 mm
14:00 23.2° 1017.1 hPa 2.7 m/s 29.4 mm 23.2° 1017.1 hPa 2.7 m/s 29.4 mm
20:00 20.4° 1016.9 hPa 1.8 m/s 29.5 mm 20.4° 1016.9 hPa 1.8 m/s 29.5 mm
 06:13     20:59    Daglengte: 14:46 Woensdag 04 Aug
02:00 15.0° 1017.8 hPa 0.6 m/s 29.5 mm 15.0° 1017.8 hPa 0.6 m/s 29.5 mm
08:00 16.9° 1016.8 hPa 1.4 m/s 29.5 mm 16.9° 1016.8 hPa 1.4 m/s 29.5 mm
14:00 26.7° 1014.0 hPa 2.3 m/s 29.5 mm 26.7° 1013.9 hPa 2.3 m/s 29.5 mm
20:00 22.4° 1013.7 hPa 0.5 m/s 29.6 mm 22.4° 1013.7 hPa 0.5 m/s 29.6 mm
 06:15     20:58    Daglengte: 14:43 Donderdag 05 Aug
02:00 17.5° 1014.7 hPa 1.6 m/s 31.0 mm 17.5° 1014.7 hPa 1.6 m/s 31.0 mm
08:00 17.9° 1013.1 hPa 1.5 m/s 31.7 mm 17.9° 1013.1 hPa 1.5 m/s 31.7 mm
14:00 22.6° 1013.9 hPa 2.2 m/s 1.7 mm
20:00 19.5° 1012.8 hPa 1.0 m/s 1.8 mm
 06:16     20:56    Daglengte: 14:40 Vrijdag 06 Aug
02:00 15.7° 1013.0 hPa 1.5 m/s 1.7 mm
08:00 15.6° 1012.7 hPa 1.8 m/s 1.5 mm
14:00 20.4° 1012.1 hPa 3.0 m/s 1.9 mm
20:00 17.9° 1011.8 hPa 2.0 m/s 2.2 mm
 06:17     20:54    Daglengte: 14:37 Zaterdag 07 Aug
02:00 14.0° 1013.2 hPa 1.8 m/s 2.0 mm
08:00 14.3° 1013.3 hPa 2.0 m/s 0.9 mm
14:00 19.2° 1013.1 hPa 3.7 m/s 1.7 mm
20:00 16.6° 1014.0 hPa 2.4 m/s 2.6 mm
 06:19     20:53    Daglengte: 14:34 Zondag 08 Aug
02:00 13.1° 1016.1 hPa 2.0 m/s 1.4 mm
08:00 13.6° 1016.5 hPa 1.8 m/s 0.3 mm
14:00 20.1° 1016.1 hPa 3.0 m/s 0.8 mm
20:00 17.6° 1016.5 hPa 1.5 m/s 1.5 mm
 06:20     20:51    Daglengte: 14:31 Maandag 09 Aug
02:00 13.6° 1018.3 hPa 1.6 m/s 0.7 mm
08:00 14.0° 1018.4 hPa 1.6 m/s 0.5 mm
14:00 21.5° 1017.8 hPa 2.3 m/s 0.5 mm
20:00 18.3° 1018.2 hPa 1.3 m/s 0.6 mm
 06:21     20:50    Daglengte: 14:29 Dinsdag 10 Aug
02:00 14.1° 1019.7 hPa 1.3 m/s 1.0 mm
08:00 14.6° 1019.8 hPa 1.2 m/s 0.8 mm
14:00 21.9° 1018.9 hPa 2.1 m/s 1.2 mm
FMI Hirlam - 7.5 km EWN WRFDA - 12 km DWD ICON - 7 km GFS - 25 km Basiskaart






























































Updatetijd (Europe/Amsterdam) Resolutie Lengte Stap
FMI Hirlam 14:00, 20:00, 02:00, 08:00 7.5 km 49h 1h
EWN WRFDA 10:30, 16:30, 22:30, 04:30 12 km 73h 1h
DWD ICON 11:45, 17:45, 23:45, 05:45 7 km 75h 1h
GFS 14:15, 20:15, 02:15, 08:15 25 km 237h 3h
30+ mm
25-30 mm
20-25 mm
15-20 mm
10-15 mm
6-10 mm
4-6 mm
2-4 mm
1-2 mm
0.5-1 mm
0.2-0.5 mm
0.1-0.2 mm
30+ mm
25-30 mm
20-25 mm
15-20 mm
10-15 mm
6-10 mm
4-6 mm
2-4 mm
1-2 mm
0.5-1 mm
0.2-0.5 mm
0.1-0.2 mm
Sneeuwval
Natte sneeuw
Hagel
Vorst
30+ mm
25-30 mm
20-25 mm
15-20 mm
10-15 mm
6-10 mm
4-6 mm
2-4 mm
1-2 mm
0.5-1 mm
0.2-0.5 mm
0.1-0.2 mm
Sneeuwval
Natte sneeuw
Hagel
Vorst
Onweer
50 mm
40 mm
30 mm
26 mm
22 mm
18 mm
14 mm
10 mm
9 mm
8 mm
7 mm
6 mm
5 mm
4.5 mm
4 mm
3.5 mm
3 mm
2.5 mm
2 mm
1.5 mm
1 mm
0.8 mm
0.6 mm
0.4 mm
0.2 mm
0.05 mm
35°
30°
25°
20°
15°
10°
-5°
-10°
-15°
-20°
-25°
-30°
-35°
33> m/s
29 m/s
25 m/s
21 m/s
17 m/s
14 m/s
11 m/s
8 m/s
5 m/s
3 m/s
0 m/s
2600 J/kg
2400 J/kg
2200 J/kg
2000 J/kg
1800 J/kg
1600 J/kg
1400 J/kg
1200 J/kg
1000 J/kg
800 J/kg
600 J/kg
400 J/kg
200 J/kg
70 dBZ
65 dBZ
60 dBZ
55 dBZ
50 dBZ
45 dBZ
40 dBZ
35 dBZ
30 dBZ
25 dBZ
20 dBZ
15 dBZ
10 dBZ
5 dBZ
-1 K
-2 K
-3 K
-4 K
-5 K
-6 K
-7 K
-8 K
-9 K
950 m²/s²
900 m²/s²
850 m²/s²
800 m²/s²
750 m²/s²
700 m²/s²
650 m²/s²
600 m²/s²
550 m²/s²
500 m²/s²
450 m²/s²
400 m²/s²
350 m²/s²
300 m²/s²
250 m²/s²
200 m²/s²
150 m²/s²
100 m²/s²
46 m/s
44 m/s
42 m/s
40 m/s
38 m/s
36 m/s
34 m/s
32 m/s
30 m/s
28 m/s
26 m/s
24 m/s
22 m/s
20 m/s
16 m/s
12 m/s
8 m/s
4 m/s
30 m/s
28 m/s
26 m/s
24 m/s
22 m/s
20 m/s
18 m/s
16 m/s
14 m/s
12 m/s
10 m/s
8 m/s
6 m/s
4 m/s
2 m/s
3.0
2.8
2.6
2.4
2.2
2.0
1.8
1.6
1.4
1.2
1.0
0.8
0.6
0.4
0.2
15
14
13
12
11
10
9
8
7
6
5
4
3
2
1
90%
80%
70%
60%
50%
40%
30%
20%
10%
42
40
38
36
34
32
30
28
26
24
22
20
18
16
14
12
90+ cm
80-90 cm
70-80 cm
60-70 cm
50-60 cm
40-50 cm
30-40 cm
20-30 cm
10-20 cm
1-10 cm
Sneeuwval
Natte sneeuw
Regen
>120 mm
115 mm
110 mm
105 mm
100 mm
95 mm
90 mm
85 mm
80 mm
75 mm
70 mm
65 mm
60 mm
55 mm
50 mm
45 mm
45 mm
40 mm
35 mm
30 mm
25 mm
20 mm
15 mm
10 mm
5 mm
0.1 mm
960 hPa
880 hPa
800 hPa
720 hPa
640 hPa
560 hPa
584 gpdm
568 gpdm
552 gpdm
536 gpdm
520 gpdm
504 gpdm
488 gpdm
Extreem zwaar Noodweer Kans op onweer
15% 15% 5% 50% 15%

Dag




Kaart






35°
30°
25°
20°
15°
10°
-5°
-10°
-15°
-20°
-25°
-30°
-35°
33> m/s
29 m/s
25 m/s
21 m/s
17 m/s
14 m/s
11 m/s
8 m/s
5 m/s
3 m/s
0 m/s
Extreem zwaar Noodweer Kans op onweer
15% 15% 5% 50% 15%
>120 mm
115 mm
110 mm
105 mm
100 mm
95 mm
90 mm
85 mm
80 mm
75 mm
70 mm
65 mm
60 mm
55 mm